| time (UTC) | temp F | wind direction | speed MPH | gust MPH | rain 1hr in | rain 24hr in | rain mn in | humidity % | barometer mb |
| 20260509200013 | 74 | 153 | 0.0 | 6.0 | 0.00 | 0.00 | 0.00 | 45 | 1006.5 |
| 20260509194512 | 74 | 158 | 0.0 | 7.0 | 0.00 | 0.00 | 0.00 | 45 | 1006.7 |
| 20260509193010 | 74 | 161 | 0.0 | 7.0 | 0.00 | 0.00 | 0.00 | 47 | 1006.8 |
| 20260509191510 | 72 | 157 | 0.0 | 3.0 | 0.00 | 0.00 | 0.00 | 51 | 1007.3 |
| 20260509190007 | 72 | 157 | 1.0 | 7.0 | 0.00 | 0.00 | 0.00 | 50 | 1007.6 |
| 20260509184506 | 73 | 152 | 0.0 | 7.0 | 0.00 | 0.00 | 0.00 | 50 | 1007.7 |
| 20260509183002 | 70 | 140 | 0.0 | 5.0 | 0.00 | 0.00 | 0.00 | 54 | 1008.0 |
| 20260509181601 | 71 | 100 | 0.0 | 7.0 | 0.00 | 0.00 | 0.00 | 52 | 1008.0 |
| 20260509180058 | 72 | 83 | 0.0 | 5.0 | 0.00 | 0.00 | 0.00 | 52 | 1008.2 |
| 20260509174558 | 71 | 160 | 0.0 | 3.0 | 0.00 | 0.00 | 0.00 | 51 | 1008.2 |
| 20260509173101 | 70 | 163 | 0.0 | 6.0 | 0.00 | 0.00 | 0.00 | 52 | 1008.3 |
| 20260509171555 | 70 | 168 | 0.0 | 8.0 | 0.00 | 0.00 | 0.00 | 52 | 1008.5 |
| 20260509170053 | 69 | 158 | 1.0 | 8.0 | 0.00 | 0.00 | 0.00 | 54 | 1008.7 |
| 20260509164554 | 68 | 161 | 0.0 | 3.0 | 0.00 | 0.00 | 0.00 | 55 | 1009.0 |
| 20260509163056 | 68 | 161 | 0.0 | 5.0 | 0.00 | 0.00 | 0.00 | 53 | 1008.7 |
| 20260509161550 | 69 | 162 | 0.0 | 10.0 | 0.00 | 0.00 | 0.00 | 52 | 1008.9 |
| 20260509160050 | 69 | 110 | 1.0 | 10.0 | 0.00 | 0.00 | 0.00 | 51 | 1008.9 |
| 20260509154549 | 69 | 161 | 2.0 | 12.0 | 0.00 | 0.00 | 0.00 | 51 | 1009.0 |
| 20260509153053 | 70 | 167 | 3.0 | 6.0 | 0.00 | 0.00 | 0.00 | 50 | 1009.2 |
| 20260509151544 | 69 | 161 | 2.0 | 8.0 | 0.00 | 0.00 | 0.00 | 53 | 1009.3 |
| 20260509150043 | 67 | 163 | 0.0 | 10.0 | 0.00 | 0.00 | 0.00 | 54 | 1009.1 |
| 20260509144537 | 66 | 138 | 1.0 | 6.0 | 0.00 | 0.00 | 0.00 | 56 | 1009.7 |
| 20260509143036 | 65 | 164 | 1.0 | 6.0 | 0.00 | 0.00 | 0.00 | 58 | 1010.0 |
| 20260509141529 | 64 | 163 | 2.0 | 8.0 | 0.00 | 0.00 | 0.00 | 59 | 1009.8 |
| 20260509140030 | 63 | 159 | 0.0 | 6.0 | 0.00 | 0.00 | 0.00 | 61 | 1010.2 |
| 20260509134524 | 62 | 157 | 0.0 | 5.0 | 0.00 | 0.00 | 0.00 | 62 | 1010.2 |
| 20260509133021 | 61 | 157 | 0.0 | 6.0 | 0.00 | 0.00 | 0.00 | 64 | 1010.4 |
| 20260509131523 | 59 | 157 | 0.0 | 5.0 | 0.00 | 0.00 | 0.00 | 66 | 1010.5 |
| 20260509130014 | 59 | 154 | 0.0 | 7.0 | 0.00 | 0.00 | 0.00 | 68 | 1010.5 |
| 20260509124510 | 58 | 154 | 0.0 | 3.0 | 0.00 | 0.00 | 0.00 | 70 | 1010.5 |
| 20260509123007 | 56 | 153 | 0.0 | 8.0 | 0.00 | 0.00 | 0.00 | 72 | 1010.6 |
| 20260509121504 | 56 | 160 | 1.0 | 7.0 | 0.00 | 0.00 | 0.00 | 73 | 1010.5 |
| 20260509114600 | 54 | 168 | 3.0 | 10.0 | 0.00 | 0.00 | 0.00 | 73 | 1010.6 |
| 20260509113106 | 54 | 161 | 0.0 | 5.0 | 0.00 | 0.00 | 0.00 | 73 | 1010.5 |
| 20260509111556 | 53 | 159 | 1.0 | 6.0 | 0.00 | 0.00 | 0.00 | 72 | 1010.5 |
| 20260509110054 | 53 | 159 | 0.0 | 4.0 | 0.00 | 0.00 | 0.00 | 71 | 1010.5 |
| 20260509104552 | 53 | 159 | 0.0 | 5.0 | 0.00 | 0.00 | 0.00 | 69 | 1010.5 |
| 20260509103058 | 53 | 159 | 0.0 | 7.0 | 0.00 | 0.00 | 0.00 | 69 | 1010.4 |
| 20260509101547 | 53 | 157 | 0.0 | 6.0 | 0.00 | 0.00 | 0.00 | 68 | 1010.5 |
| 20260509100051 | 53 | 157 | 0.0 | 2.0 | 0.00 | 0.00 | 0.00 | 67 | 1010.3 |
| 20260509094547 | 54 | 157 | 0.0 | 0.0 | 0.00 | 0.00 | 0.00 | 66 | 1010.2 |
| 20260509093044 | 54 | 157 | 0.0 | 1.0 | 0.00 | 0.00 | 0.00 | 65 | 1010.3 |
| 20260509091541 | 54 | 157 | 0.0 | 2.0 | 0.00 | 0.00 | 0.00 | 64 | 1010.4 |
| 20260509090049 | 55 | 157 | 0.0 | 1.0 | 0.00 | 0.00 | 0.00 | 63 | 1010.3 |
| 20260509084540 | 54 | 157 | 0.0 | 0.0 | 0.00 | 0.00 | 0.00 | 63 | 1010.3 |
| 20260509083041 | 54 | 157 | 0.0 | 0.0 | 0.00 | 0.00 | 0.00 | 63 | 1010.4 |
| 20260509081537 | 54 | 157 | 0.0 | 1.0 | 0.00 | 0.00 | 0.00 | 63 | 1010.7 |
| 20260509080038 | 54 | 157 | 0.0 | 0.0 | 0.00 | 0.00 | 0.00 | 62 | 1010.9 |
| 20260509074535 | 54 | 157 | 0.0 | 0.0 | 0.00 | 0.00 | 0.00 | 61 | 1010.9 |
| 20260509073036 | 55 | 157 | 0.0 | 0.0 | 0.00 | 0.00 | 0.00 | 60 | 1011.2 |
| 20260509071532 | 55 | 157 | 0.0 | 0.0 | 0.00 | 0.00 | 0.00 | 59 | 1011.2 |
| 20260509070031 | 55 | 157 | 0.0 | 1.0 | 0.00 | 0.00 | 0.00 | 58 | 1011.3 |
| 20260509064533 | 55 | 157 | 0.0 | 1.0 | 0.00 | 0.00 | 0.00 | 58 | 1011.2 |
| 20260509063031 | 55 | 157 | 0.0 | 6.0 | 0.00 | 0.00 | 0.00 | 58 | 1011.4 |
| 20260509061528 | 55 | 157 | 0.0 | 3.0 | 0.00 | 0.00 | 0.00 | 58 | 1011.5 |
| 20260509060031 | 55 | 157 | 0.0 | 1.0 | 0.00 | 0.00 | 0.00 | 56 | 1011.3 |
| 20260509054524 | 55 | 157 | 0.0 | 1.0 | 0.00 | 0.00 | 0.00 | 55 | 1011.2 |
| 20260509053023 | 55 | 157 | 0.0 | 3.0 | 0.00 | 0.00 | 0.00 | 54 | 1011.2 |
| 20260509051520 | 56 | 157 | 0.0 | 1.0 | 0.00 | 0.00 | 0.00 | 53 | 1011.3 |
| 20260509050039 | 56 | 157 | 0.0 | 1.0 | 0.00 | 0.00 | 0.00 | 52 | 1011.3 |
| 20260509044519 | 56 | 157 | 0.0 | 5.0 | 0.00 | 0.00 | 0.00 | 51 | 1011.2 |
| 20260509043016 | 57 | 157 | 0.0 | 5.0 | 0.00 | 0.00 | 0.00 | 51 | 1011.3 |
| 20260509041516 | 57 | 157 | 0.0 | 1.0 | 0.00 | 0.00 | 0.00 | 50 | 1011.2 |
| 20260509040015 | 58 | 157 | 0.0 | 0.0 | 0.00 | 0.00 | 0.00 | 49 | 1011.4 |
| 20260509034515 | 58 | 157 | 0.0 | 2.0 | 0.00 | 0.00 | 0.00 | 47 | 1011.6 |
| 20260509033015 | 59 | 157 | 0.0 | 3.0 | 0.00 | 0.00 | 0.00 | 46 | 1011.7 |
| 20260509031525 | 59 | 157 | 0.0 | 0.0 | 0.00 | 0.00 | 0.00 | 45 | 1011.7 |
| 20260509030014 | 60 | 157 | 0.0 | 0.0 | 0.00 | 0.00 | 0.00 | 45 | 1011.6 |
| 20260509024520 | 60 | 157 | 0.0 | 2.0 | 0.00 | 0.00 | 0.00 | 43 | 1011.7 |
| 20260509023018 | 60 | 157 | 0.0 | 1.0 | 0.00 | 0.00 | 0.00 | 43 | 1011.6 |
| 20260509021516 | 60 | 157 | 0.0 | 9.0 | 0.00 | 0.00 | 0.00 | 43 | 1011.5 |
| 20260509020013 | 60 | 160 | 0.0 | 4.0 | 0.00 | 0.00 | 0.00 | 41 | 1011.4 |
| 20260509014510 | 61 | 160 | 0.0 | 0.0 | 0.00 | 0.00 | 0.00 | 42 | 1011.4 |
| 20260509013021 | 62 | 160 | 0.0 | 0.0 | 0.00 | 0.00 | 0.00 | 41 | 1011.3 |
| 20260509011511 | 63 | 160 | 0.0 | 1.0 | 0.00 | 0.00 | 0.00 | 40 | 1011.2 |
| 20260509010014 | 64 | 160 | 0.0 | 1.0 | 0.00 | 0.00 | 0.00 | 37 | 1011.0 |
| 20260509004507 | 64 | 160 | 0.0 | 2.0 | 0.00 | 0.00 | 0.00 | 36 | 1010.9 |
| 20260509003008 | 65 | 160 | 0.0 | 3.0 | 0.00 | 0.00 | 0.00 | 35 | 1011.0 |
| 20260509001507 | 66 | 160 | 0.0 | 3.0 | 0.00 | 0.00 | 0.00 | 34 | 1010.8 |
| 20260509000013 | 66 | 160 | 0.0 | 2.0 | 0.00 | 0.00 | 0.00 | 32 | 1010.7 |
| 20260508234506 | 67 | 160 | 0.0 | 5.0 | 0.00 | 0.00 | 0.00 | 31 | 1010.6 |
| 20260508233005 | 68 | 159 | 0.0 | 2.0 | 0.00 | 0.00 | 0.00 | 30 | 1010.5 |
| 20260508231505 | 68 | 158 | 0.0 | 6.0 | 0.00 | 0.00 | 0.00 | 31 | 1010.4 |
| 20260508230005 | 69 | 156 | 0.0 | 5.0 | 0.00 | 0.00 | 0.00 | 29 | 1010.4 |
| 20260508224506 | 69 | 152 | 0.0 | 8.0 | 0.00 | 0.00 | 0.00 | 28 | 1010.3 |
| 20260508223011 | 69 | 162 | 1.0 | 6.0 | 0.00 | 0.00 | 0.00 | 29 | 1010.2 |
| 20260508221503 | 70 | 161 | 2.0 | 11.0 | 0.00 | 0.00 | 0.00 | 28 | 1010.4 |
| 20260508220008 | 70 | 166 | 2.0 | 6.0 | 0.00 | 0.00 | 0.00 | 27 | 1010.5 |
| 20260508214502 | 70 | 167 | 0.0 | 9.0 | 0.00 | 0.00 | 0.00 | 28 | 1010.4 |
| 20260508213117 | 70 | 155 | 1.0 | 9.0 | 0.00 | 0.00 | 0.00 | 28 | 1010.5 |
| 20260508211602 | 70 | 157 | 0.0 | 8.0 | 0.00 | 0.00 | 0.00 | 28 | 1010.7 |
| 20260508210059 | 70 | 160 | 0.0 | 11.0 | 0.00 | 0.00 | 0.00 | 28 | 1010.4 |
| 20260508204615 | 70 | 160 | 2.0 | 8.0 | 0.00 | 0.00 | 0.00 | 28 | 1010.7 |
| 20260508203102 | 71 | 159 | 1.0 | 6.0 | 0.00 | 0.00 | 0.00 | 28 | 1010.7 |
| 20260508201607 | 70 | 154 | 0.0 | 8.0 | 0.00 | 0.00 | 0.00 | 28 | 1010.9 |